Regional Weather Roundup
Issued by NWS Newport/Morehead, NC

Current Version | Previous Version | Text Only | Print | Product List | Glossary Off
Versions: 1 2 3 4 5 6 7 8 9 10 11 12 13 14 15 16 17 18 19 20 21 22 23 24 25 26 27 28 29 30 31 32 33 34 35 36 37 38 39 40 41 42 43 44 45 46 47 48 49 50
000 ASUS42 KMHX 211810 RWRMHX WEATHER ROUNDUP FOR EASTERN NORTH CAROLINA NATIONAL WEATHER SERVICE NEWPORT/MOREHEAD CITY NC 200 PM EDT SUN SEP 21 2014 NOTE: "FAIR" INDICATES FEW OR NO CLOUDS BELOW 12,000 FEET WITH NO SIGNIFICANT WEATHER AND/OR OBSTRUCTIONS TO VISIBILITY NCZ015>017-031-032-045>047-102-103-211900- NORTH COAST CITY SKY/WX TMP DP RH WIND PRES REMARKS EDENTON PTSUNNY 76 68 76 W10 29.78F ELIZABETH CITY PTSUNNY 79 68 69 NW16 29.75F KITTY HAWK MOCLDY 76 69 79 NW7 29.73S MANTEO PTSUNNY 76 69 80 N13G20 29.74S $$ NCZ045>047-081-094-103-104-211900- CENTRAL COAST CITY SKY/WX TMP DP RH WIND PRES REMARKS FRISCO PTSUNNY 76 72 87 VRB6 29.74F SWANQUARTER N/A 79 N/A N/A NW10 29.74S $$ NCZ095-097-098-100-101-211900- SOUTHERN COAST CITY SKY/WX TMP DP RH WIND PRES REMARKS BEAUFORT MOSUNNY 81 70 69 NW14 29.79F CEDAR ISLAND N/A 75 N/A N/A W23 29.82S JACKSONVILLE MOSUNNY 80 62 54 NW12 29.82F NEWPORT NOT AVBL PINEY ISLAND PTCLDY 80 68 66 NW17 29.78S WILMINGTON SUNNY 83 61 47 NW12 29.84F $$ NCZ011>013-027>030-043-044-078>080-089-090>093-098-211900- COASTAL PLAIN CITY SKY/WX TMP DP RH WIND PRES REMARKS AHOSKIE MOSUNNY 80 60 50 NW7 29.79F CLINTON MOSUNNY 83 64 51 W7 29.85F ELIZABETHTOWN MOSUNNY 82 60 47 W9 29.86F GOLDSBORO MOSUNNY 83 64 53 W12G17 29.81F GREENVILLE MOSUNNY 81 64 57 NW6 29.83F HAVELOCK MOSUNNY 82 68 62 N12 29.81F KENANSVILLE MOSUNNY 83 60 46 W9 29.85F KINSTON SUNNY 82 61 47 NW12 29.83F NEW BERN MOSUNNY 82 64 54 NW9G21 29.81F RICHLANDS MOSUNNY 81 64 57 SW8 29.83F ROANOKE RAPIDS NOT AVBL ROCKY MOUNT MOSUNNY 82 62 50 W6 29.81F WASHINGTON MOSUNNY 75 65 70 W7 29.80F WHITEVILLE MOSUNNY 82 61 47 W6 29.87F $$ AMZ130-135-150-152-154-156-158-170-250-252-270-ANZ085-086-088-633-658-670-211900- MARINE OBSERVATIONS STATION/POSITION TIME TEMP WIND PRES WAVE SWELL AIR SEA DIR/SP/G HT/PER HT/PER (UTC) (F) (DEG/KT/KT) (MB) (FT/S) (FT/S) CHESAPEAKE LIGHT 1700 72 340/ 14/ 16 1008.0 BUOY 44014 1800 73 74 350/ 21/ 25 1004.4 8/ 8 5/ 8 DUCK 1800 74 74 340/ 17/ 20 1006.0 2E DUCK 1800 N/A 5/ 8 2/11 OREGON INLET 1800 76 74 340/ 13/ 18 1006.7 BUOY 44095 1800 74 N/A 8/ 8 2/11 20E OREGON INLET NOT AVBL HATTERAS CG NOT AVBL DIAMOND BUOY NOT AVBL CAPE LOOKOUT 1700 76 320/ 13/ 16 1008.9 BEAUFORT LAB 1800 80 75 340/ 8/ 12 1008.4 30 SE NEW RIVER 1700 77 83 310/ 17/ 21 1009.9 5 SE WRIGHTSVILL 1700 73 79 330/ 16/ 19 N/A BUOY 41002 1704 80 81 270/ 19/ 25 1011.8 10/ 8 BUOY 41004 1800 78 81 290/ 10/ 14 1013.2 5/ 7 3/ 7 $$

USA.gov is the U.S. government's official web portal to all federal, state and local government web resources and services.